Location: ???? ?????
(37.9132°N, 22.9869°E)
Time: 03:34:41
(UTC+00:00)

Cosmos 2322 Rocket - Pass Details

Date: 04 August 2024
Orbit: 830 x 851 km, 71.0° (Epoch: 10 September)

Event Time Altitude Azimuth Distance (km) Brightness Sun altitude
Exits shadow 22:50:37 17° 71° (ENE) 1,998 4.3 -35.0°
Drops below altitude 10° 22:52:37 10° 53° (NE) 2,471 5.0 -35.0°
Sets 22:55:36 0° 38° (NE) 3,415 6.1 -35.0°
